FREGAT DEB, 45641

Orbit data source: Space-Track

FREGAT DEB, 45641 is space debris in LEO originally from a launch on Mon, 18 Jul 2011 UTC launched from the Tyuratam Missile And Space Complex (TTMTR). Debris objects in space refer to the collection of defunct objects orbiting the Earth. Examples of debris include non-operational satellites, rocket bodies, and fragments generated from explosions, collisions, or faulty payload assembly.

Loading next visibility...
Identifier
45641, 2011-037AH
Orbit
LEO
Last TLE update
5 hours ago
Origin
Manufacturer
Lavochkin
Mission
Spacecraft
Bus & Motor
Unknown
Mass
Unknown
Launch date (UTC)
2011-07-18 (14 years ago)
Launch vehicle
Unknown
Launch site
Tyuratam Missile And Space Complex (TTMTR)
Object type
Payload
Rocket body
Debris
Shape & HBR
Unknown
Radar Cross Section
Medium (>0.1 m² and <1 m²)

Expand to show TLE details & history

TLE from 5 hours ago
0 FREGAT DEB
1 45641U 11037AH  25182.18369401  .00146296  00000-0  47810-2 0  9992
2 45641  51.6000 224.5788 0559380 173.2306 187.6614 14.46773240234697
Epoch: 2025-07-01T04:24Z
TLE epoch observation values (Epoch: 2025-07-01T04:24:31.162Z)
Latitude
-0.00003°
Longitude
-121.03386°
Altitude
1,131.677 km
Speed
7.083 km/s
True Right ascension
14h 58m 18s
True Declination
0° 00' 00"
Sunlit
Object was in daylight at epoch
Visualization orbit readout
Latitude
45.11305°
Longitude
-69.64138°
Altitude
853.358 km
Speed
7.372 km/s
Apparent Right ascension
14h 04m 09s
Apparent Declination
15° 17' 29"
Sunlit
Object is in daylight
Visualization observer readout
Local Sidereal Time
21:20:29
Azimuth
293.936° NW
Elevation
-4.167°
Doppler factor
1
Orbital elements
Apogee altitude
1,134.691 km
Perigee altitude
338.711 km
Semi-major axis
7,114.838 km
Eccentricity
0.05594
Inclination
51.6°
RAAN
224.5788°
Arg. of periapsis
173.2306°
True anomaly
Unknown
Mean anomaly
187.6614°
Eccentric anomaly
Unknown
Mean motion
3.61656 °/min
Orbital period
99.54 mins
BSTAR
0.004781
Loading maneuver chart data...
Loading SW <> Apogee altitude chart data...
Loading historical data...
Loading historical data...
Loading historical data...
Loading historical data...
Loading historical data...
Loading historical data...
Loading historical data...

FREGAT DEB Visibility forecast

Observer location: undefined°, undefined°

Span
Click to sort rows by Start time (UTC) header in descending order
Start Az.
Max El. time (UTC)
Max El. Az.
Max El.
End time (UTC)
End Az.
5 mins2025-07-01 09:48:10.080Z323.497° NNW2025-07-01 09:51:10.080Z7.383° NNE18.502°2025-07-01 09:53:10.080Z40.225° NE
5 mins2025-07-01 11:33:10.080Z326.576° NNW2025-07-01 11:36:10.080Z42.28° NE30.077°2025-07-01 11:38:10.080Z87.68° E
4 mins2025-07-01 13:17:10.080Z278.369° WNW2025-07-01 13:19:10.080Z232.865° WSW24.397°2025-07-01 13:21:10.080Z179.003° S
7 mins2025-07-02 03:45:10.080Z161.945° S2025-07-02 03:48:10.080Z133.095° SE18.862°2025-07-02 03:52:10.080Z90.299° ESE
10 mins2025-07-02 05:27:10.080Z224.479° SW2025-07-02 05:32:10.080Z163.186° S44.385°2025-07-02 05:37:10.080Z55.766° ENE
9 mins2025-07-02 07:12:10.080Z276.288° WNW2025-07-02 07:17:10.080Z346.323° N29.7°2025-07-02 07:21:10.080Z40.754° NE
5 mins2025-07-02 08:59:10.080Z320.193° NNW2025-07-02 09:02:10.080Z3.53° NNE19.175°2025-07-02 09:04:10.080Z34.477° NE
|